TimeEDT,TemperatureF,Dew PointF,Humidity,Sea Level PressureIn,VisibilityMPH,Wind Direction,Wind SpeedMPH,Gust SpeedMPH,PrecipitationIn,Events,Conditions,WindDirDegrees,DateUTC
12:54 AM,78.1,57.0,48,29.86,10.0,SW,12.7,20.7,N/A,,Clear,220,2013-04-11 04:54:00
1:54 AM,75.0,57.0,53,29.87,10.0,NNE,10.4,-,N/A,,Clear,20,2013-04-11 05:54:00
2:54 AM,71.1,57.0,61,29.88,10.0,NNW,8.1,-,N/A,,Clear,330,2013-04-11 06:54:00
3:54 AM,69.1,57.0,65,29.86,10.0,South,6.9,-,N/A,,Clear,190,2013-04-11 07:54:00
4:54 AM,66.9,57.0,70,29.86,10.0,Calm,Calm,-,N/A,,Clear,0,2013-04-11 08:54:00
5:54 AM,63.0,55.9,78,29.85,10.0,South,5.8,-,N/A,,Clear,190,2013-04-11 09:54:00
6:54 AM,66.0,57.0,73,29.87,10.0,SSW,9.2,-,N/A,,Clear,210,2013-04-11 10:54:00
7:54 AM,68.0,57.9,70,29.91,10.0,SW,3.5,-,N/A,,Clear,230,2013-04-11 11:54:00
8:54 AM,73.0,60.1,64,29.90,10.0,SW,10.4,-,N/A,,Clear,220,2013-04-11 12:54:00
9:54 AM,77.0,60.1,56,29.90,10.0,SW,16.1,21.9,N/A,,Clear,220,2013-04-11 13:54:00
10:54 AM,78.1,59.0,52,29.91,10.0,WSW,11.5,19.6,N/A,,Clear,240,2013-04-11 14:54:00
11:54 AM,80.1,59.0,48,29.89,10.0,WSW,8.1,-,N/A,,Clear,240,2013-04-11 15:54:00
1:54 PM,84.0,57.9,41,29.86,10.0,WSW,11.5,19.6,N/A,,Clear,250,2013-04-11 17:54:00
2:54 PM,84.0,60.1,44,29.84,10.0,South,11.5,17.3,N/A,,Clear,190,2013-04-11 18:54:00
3:54 PM,84.9,59.0,41,29.83,10.0,South,9.2,16.1,N/A,,Clear,190,2013-04-11 19:54:00
4:54 PM,84.0,59.0,43,29.81,10.0,SW,10.4,-,N/A,,Clear,220,2013-04-11 20:54:00
5:54 PM,73.0,55.9,55,29.82,10.0,NE,12.7,-,N/A,,Clear,50,2013-04-11 21:54:00
6:54 PM,63.0,52.0,67,29.84,10.0,NE,9.2,-,N/A,,Clear,50,2013-04-11 22:54:00
7:54 PM,57.0,50.0,77,29.85,10.0,NE,10.4,-,N/A,,Clear,50,2013-04-11 23:54:00
8:20 PM,55.4,50.0,82,29.85,9.0,ENE,15.0,-,N/A,,Partly Cloudy,60,2013-04-12 00:20:00
8:34 PM,55.4,50.0,82,29.85,8.0,NE,13.8,-,N/A,,Mostly Cloudy,50,2013-04-12 00:34:00
8:50 PM,55.4,50.0,82,29.85,8.0,ENE,12.7,-,N/A,,Partly Cloudy,70,2013-04-12 00:50:00
8:54 PM,55.0,50.0,83,29.86,8.0,ENE,11.5,-,N/A,,Partly Cloudy,70,2013-04-12 00:54:00
9:01 PM,55.4,50.0,82,29.86,8.0,ENE,10.4,-,N/A,,Overcast,60,2013-04-12 01:01:00
9:22 PM,55.4,50.0,82,29.86,8.0,ENE,12.7,-,N/A,,Partly Cloudy,70,2013-04-12 01:22:00
9:54 PM,54.0,50.0,86,29.87,6.0,NE,11.5,-,N/A,,Partly Cloudy,50,2013-04-12 01:54:00
10:01 PM,53.6,50.0,88,29.86,6.0,NE,11.5,-,N/A,,Overcast,50,2013-04-12 02:01:00
10:50 PM,53.6,50.0,88,29.85,5.0,NE,9.2,-,N/A,,Overcast,50,2013-04-12 02:50:00
10:54 PM,54.0,50.0,86,29.86,5.0,ENE,9.2,-,N/A,,Overcast,60,2013-04-12 02:54:00
11:35 PM,53.6,50.0,88,29.84,2.5,NE,9.2,-,N/A,,Overcast,50,2013-04-12 03:35:00
11:54 PM,54.0,50.0,86,29.84,1.8,ENE,8.1,-,N/A,,Overcast,70,2013-04-12 03:54:00